Location: Bukit Lungun
(2.6833°N, 113.9667°E)
Time: 10:14:28
(UTC+00:00)

Cosmos 2322 Rocket - Pass Details

Date: 02 March 2021
Orbit: 832 x 852 km, 71.0° (Epoch: 20 April)

Event Time Altitude Azimuth Distance (km) Brightness Sun altitude
Rises 21:37:33 0° 352° (N) 3,392 5.2 -14.9°
Reaches altitude 10° 21:40:02 10° 356° (N) 2,461 4.5 -14.2°
Maximum altitude 21:45:35 57° 75° (ENE) 988 2.9 -12.9°
Drops below altitude 10° 21:51:09 10° 153° (SSE) 2,476 5.1 -11.5°
Sets 21:53:38 0° 157° (SSE) 3,413 5.8 -10.9°
